Time,TemperatureF,DewpointF,PressureIn,WindDirection,WindDirectionDegrees,WindSpeedMPH,WindSpeedGustMPH,Humidity,HourlyPrecipIn,Conditions,Clouds,dailyrainin,SoftwareType,DateUTC
2013-05-18 00:03:00,49.0,42.0,30.17,North,355,0.0,-999.0,76,-99.99,,,-99.99,,2013-05-18 04:03:00,
2013-05-18 00:12:00,49.0,42.0,30.17,North,355,0.0,-999.0,76,-99.99,,,-99.99,,2013-05-18 04:12:00,
2013-05-18 00:23:00,48.0,41.0,30.18,North,355,0.0,-999.0,77,-99.99,,,-99.99,,2013-05-18 04:23:00,
2013-05-18 00:33:00,48.0,41.0,30.18,North,355,0.0,-999.0,78,-99.99,,,-99.99,,2013-05-18 04:33:00,
2013-05-18 00:43:00,48.0,41.0,30.18,North,355,0.0,-999.0,78,-99.99,,,-99.99,,2013-05-18 04:43:00,
2013-05-18 00:52:00,48.0,42.0,30.18,North,355,0.0,-999.0,79,-99.99,,,-99.99,,2013-05-18 04:52:00,
2013-05-18 01:02:00,48.0,42.0,30.18,North,355,0.0,-999.0,79,-99.99,,,-99.99,,2013-05-18 05:02:00,
2013-05-18 01:13:00,48.0,42.0,30.18,North,355,0.0,-999.0,79,-99.99,,,-99.99,,2013-05-18 05:13:00,
2013-05-18 01:22:00,48.0,42.0,30.18,North,351,0.0,-999.0,80,-99.99,,,-99.99,,2013-05-18 05:22:00,
2013-05-18 01:32:00,47.0,41.0,30.18,North,351,0.0,-999.0,80,-99.99,,,-99.99,,2013-05-18 05:32:00,
2013-05-18 01:42:00,47.0,41.0,30.18,North,351,0.0,-999.0,80,-99.99,,,-99.99,,2013-05-18 05:42:00,
2013-05-18 01:52:00,47.0,41.0,30.18,North,351,0.0,-999.0,80,-99.99,,,-99.99,,2013-05-18 05:52:00,
2013-05-18 02:02:00,47.0,41.0,30.18,North,351,0.0,-999.0,81,-99.99,,,-99.99,,2013-05-18 06:02:00,
2013-05-18 02:11:00,47.0,41.0,30.18,North,351,0.0,-999.0,81,-99.99,,,-99.99,,2013-05-18 06:11:00,
2013-05-18 02:22:00,47.0,42.0,30.19,North,351,0.0,-999.0,82,-99.99,,,-99.99,,2013-05-18 06:22:00,
2013-05-18 02:32:00,47.0,42.0,30.18,North,351,0.0,-999.0,82,-99.99,,,-99.99,,2013-05-18 06:32:00,
2013-05-18 02:42:00,47.0,42.0,30.18,North,351,0.0,-999.0,82,-99.99,,,-99.99,,2013-05-18 06:42:00,
2013-05-18 02:52:00,46.0,41.0,30.18,North,351,0.0,-999.0,82,-99.99,,,-99.99,,2013-05-18 06:52:00,
2013-05-18 03:01:00,46.0,41.0,30.18,North,351,0.0,-999.0,82,-99.99,,,-99.99,,2013-05-18 07:01:00,
2013-05-18 03:12:00,46.0,41.0,30.18,North,351,0.0,-999.0,82,-99.99,,,-99.99,,2013-05-18 07:12:00,
2013-05-18 03:21:00,45.0,40.0,30.19,North,351,0.0,-999.0,83,-99.99,,,-99.99,,2013-05-18 07:21:00,
2013-05-18 03:32:00,45.0,40.0,30.19,North,351,0.0,-999.0,84,-99.99,,,-99.99,,2013-05-18 07:32:00,
2013-05-18 03:42:00,45.0,40.0,30.19,North,351,0.0,-999.0,84,-99.99,,,-99.99,,2013-05-18 07:42:00,
2013-05-18 03:52:00,44.0,39.0,30.19,North,351,0.0,-999.0,84,-99.99,,,-99.99,,2013-05-18 07:52:00,
2013-05-18 04:02:00,44.0,39.0,30.19,North,351,0.0,-999.0,84,-99.99,,,-99.99,,2013-05-18 08:02:00,
2013-05-18 04:11:00,44.0,39.0,30.19,North,351,0.0,-999.0,84,-99.99,,,-99.99,,2013-05-18 08:11:00,
2013-05-18 04:21:00,43.0,39.0,30.19,North,351,0.0,-999.0,85,-99.99,,,-99.99,,2013-05-18 08:21:00,
2013-05-18 04:32:00,43.0,39.0,30.20,North,350,0.0,-999.0,86,-99.99,,,-99.99,,2013-05-18 08:32:00,
2013-05-18 04:42:00,43.0,39.0,30.20,North,350,0.0,-999.0,86,-99.99,,,-99.99,,2013-05-18 08:42:00,
2013-05-18 04:52:00,43.0,39.0,30.20,North,350,0.0,-999.0,87,-99.99,,,-99.99,,2013-05-18 08:52:00,
2013-05-18 05:02:00,43.0,39.0,30.20,North,350,0.0,-999.0,86,-99.99,,,-99.99,,2013-05-18 09:02:00,
2013-05-18 05:11:00,43.0,39.0,30.20,North,350,0.0,-999.0,86,-99.99,,,-99.99,,2013-05-18 09:11:00,
2013-05-18 05:22:00,42.0,38.0,30.21,North,350,0.0,-999.0,86,-99.99,,,-99.99,,2013-05-18 09:22:00,
2013-05-18 05:33:00,42.0,38.0,30.21,North,350,0.0,-999.0,86,-99.99,,,-99.99,,2013-05-18 09:33:00,
2013-05-18 05:43:00,42.0,38.0,30.21,North,350,0.0,-999.0,86,-99.99,,,-99.99,,2013-05-18 09:43:00,
2013-05-18 05:53:00,42.0,38.0,30.22,North,350,0.0,-999.0,87,-99.99,,,-99.99,,2013-05-18 09:53:00,
2013-05-18 06:03:00,41.0,37.0,30.22,North,350,0.0,-999.0,87,-99.99,,,-99.99,,2013-05-18 10:03:00,
2013-05-18 06:12:00,41.0,37.0,30.22,North,350,0.0,-999.0,87,-99.99,,,-99.99,,2013-05-18 10:12:00,
2013-05-18 06:23:00,41.0,37.0,30.23,North,350,0.0,-999.0,87,-99.99,,,-99.99,,2013-05-18 10:23:00,
2013-05-18 06:33:00,41.0,38.0,30.23,North,350,0.0,-999.0,88,-99.99,,,-99.99,,2013-05-18 10:33:00,
2013-05-18 06:42:00,41.0,38.0,30.23,North,350,0.0,-999.0,88,-99.99,,,-99.99,,2013-05-18 10:42:00,
2013-05-18 06:52:00,42.0,39.0,30.24,North,350,0.0,-999.0,88,-99.99,,,-99.99,,2013-05-18 10:52:00,
2013-05-18 07:03:00,42.0,39.0,30.24,North,350,0.0,-999.0,89,-99.99,,,-99.99,,2013-05-18 11:03:00,
2013-05-18 07:12:00,42.0,39.0,30.24,North,350,0.0,-999.0,89,-99.99,,,-99.99,,2013-05-18 11:12:00,
2013-05-18 07:22:00,44.0,41.0,30.24,NW,311,0.0,-999.0,88,-99.99,,,-99.99,,2013-05-18 11:22:00,
2013-05-18 07:33:00,46.0,41.0,30.25,WNW,298,0.0,-999.0,81,-99.99,,,-99.99,,2013-05-18 11:33:00,
2013-05-18 07:42:00,46.0,41.0,30.25,WNW,298,0.0,-999.0,81,-99.99,,,-99.99,,2013-05-18 11:42:00,
2013-05-18 07:52:00,49.0,42.0,30.25,WNW,298,0.0,-999.0,76,-99.99,,,-99.99,,2013-05-18 11:52:00,
2013-05-18 08:02:00,52.0,43.0,30.26,WNW,298,0.0,-999.0,70,-99.99,,,-99.99,,2013-05-18 12:02:00,
2013-05-18 08:12:00,52.0,43.0,30.26,WNW,298,0.0,-999.0,70,-99.99,,,-99.99,,2013-05-18 12:12:00,
2013-05-18 08:23:00,55.0,43.0,30.26,NW,309,0.0,-999.0,65,-99.99,,,-99.99,,2013-05-18 12:23:00,
2013-05-18 08:33:00,57.0,43.0,30.26,NNE,12,1.0,-999.0,59,-99.99,,,-99.99,,2013-05-18 12:33:00,
2013-05-18 08:42:00,57.0,43.0,30.26,NNE,12,1.0,-999.0,59,-99.99,,,-99.99,,2013-05-18 12:42:00,
2013-05-18 08:52:00,59.0,44.0,30.26,NNE,28,0.0,-999.0,57,-99.99,,,-99.99,,2013-05-18 12:52:00,
2013-05-18 09:01:00,61.0,44.0,30.27,NNE,27,0.0,-999.0,53,-99.99,,,-99.99,,2013-05-18 13:01:00,
2013-05-18 09:11:00,61.0,44.0,30.27,NNE,27,0.0,-999.0,53,-99.99,,,-99.99,,2013-05-18 13:11:00,
2013-05-18 09:21:00,62.0,44.0,30.28,NW,323,0.0,-999.0,51,-99.99,,,-99.99,,2013-05-18 13:21:00,
2013-05-18 09:33:00,64.0,44.0,30.27,NNW,329,0.0,-999.0,49,-99.99,,,-99.99,,2013-05-18 13:33:00,
2013-05-18 09:43:00,64.0,44.0,30.27,NNW,329,0.0,-999.0,49,-99.99,,,-99.99,,2013-05-18 13:43:00,
2013-05-18 09:52:00,66.0,44.0,30.27,NW,309,0.0,-999.0,45,-99.99,,,-99.99,,2013-05-18 13:52:00,
2013-05-18 10:04:00,67.0,43.0,30.27,WNW,294,1.0,-999.0,41,-99.99,,,-99.99,,2013-05-18 14:04:00,
2013-05-18 10:12:00,67.0,43.0,30.27,WNW,294,1.0,-999.0,41,-99.99,,,-99.99,,2013-05-18 14:12:00,
2013-05-18 10:22:00,68.0,42.0,30.27,WNW,292,0.0,-999.0,39,-99.99,,,-99.99,,2013-05-18 14:22:00,
2013-05-18 10:33:00,69.0,42.0,30.26,West,261,1.0,-999.0,38,-99.99,,,-99.99,,2013-05-18 14:33:00,
2013-05-18 10:42:00,69.0,42.0,30.26,West,261,1.0,-999.0,38,-99.99,,,-99.99,,2013-05-18 14:42:00,
2013-05-18 10:54:00,70.0,42.0,30.26,West,260,2.0,-999.0,36,-99.99,,,-99.99,,2013-05-18 14:54:00,
2013-05-18 11:03:00,70.0,40.0,30.26,WNW,296,2.0,-999.0,34,-99.99,,,-99.99,,2013-05-18 15:03:00,
2013-05-18 11:13:00,70.0,40.0,30.26,WNW,296,2.0,-999.0,34,-99.99,,,-99.99,,2013-05-18 15:13:00,
2013-05-18 11:23:00,71.0,41.0,30.26,NW,305,1.0,-999.0,34,-99.99,,,-99.99,,2013-05-18 15:23:00,
2013-05-18 11:33:00,71.0,40.0,30.25,NNW,348,2.0,-999.0,33,-99.99,,,-99.99,,2013-05-18 15:33:00,
2013-05-18 11:43:00,71.0,40.0,30.25,NNW,348,2.0,-999.0,33,-99.99,,,-99.99,,2013-05-18 15:43:00,
2013-05-18 11:53:00,72.0,40.0,30.25,WNW,291,2.0,-999.0,31,-99.99,,,-99.99,,2013-05-18 15:53:00,
2013-05-18 12:03:00,72.0,41.0,30.24,SW,219,3.0,-999.0,32,-99.99,,,-99.99,,2013-05-18 16:03:00,
2013-05-18 12:13:00,72.0,41.0,30.24,SW,219,3.0,-999.0,32,-99.99,,,-99.99,,2013-05-18 16:13:00,
2013-05-18 12:22:00,71.0,40.0,30.24,WNW,283,3.0,-999.0,32,-99.99,,,-99.99,,2013-05-18 16:22:00,
2013-05-18 12:33:00,71.0,40.0,30.24,South,191,1.0,-999.0,32,-99.99,,,-99.99,,2013-05-18 16:33:00,
2013-05-18 12:42:00,71.0,40.0,30.24,South,191,1.0,-999.0,32,-99.99,,,-99.99,,2013-05-18 16:42:00,
2013-05-18 12:52:00,73.0,41.0,30.23,South,184,1.0,-999.0,32,-99.99,,,-99.99,,2013-05-18 16:52:00,
2013-05-18 13:02:00,73.0,40.0,30.23,West,268,0.0,-999.0,30,-99.99,,,-99.99,,2013-05-18 17:02:00,
2013-05-18 13:12:00,73.0,40.0,30.23,West,268,0.0,-999.0,30,-99.99,,,-99.99,,2013-05-18 17:12:00,
2013-05-18 13:22:00,72.0,39.0,30.23,SW,231,0.0,-999.0,30,-99.99,,,-99.99,,2013-05-18 17:22:00,
2013-05-18 13:33:00,74.0,40.0,30.22,NW,317,0.0,-999.0,29,-99.99,,,-99.99,,2013-05-18 17:33:00,
2013-05-18 13:42:00,74.0,40.0,30.22,NW,317,0.0,-999.0,29,-99.99,,,-99.99,,2013-05-18 17:42:00,
2013-05-18 13:52:00,73.0,40.0,30.22,SW,231,0.0,-999.0,30,-99.99,,,-99.99,,2013-05-18 17:52:00,
2013-05-18 14:01:00,73.0,39.0,30.22,NNE,25,0.0,-999.0,29,-99.99,,,-99.99,,2013-05-18 18:01:00,
2013-05-18 14:12:00,73.0,39.0,30.22,NNE,25,0.0,-999.0,29,-99.99,,,-99.99,,2013-05-18 18:12:00,
2013-05-18 14:21:00,73.0,40.0,30.22,WNW,288,0.0,-999.0,30,-99.99,,,-99.99,,2013-05-18 18:21:00,
2013-05-18 14:32:00,74.0,40.0,30.21,NNW,337,0.0,-999.0,29,-99.99,,,-99.99,,2013-05-18 18:32:00,
2013-05-18 14:42:00,74.0,40.0,30.21,NNW,337,0.0,-999.0,29,-99.99,,,-99.99,,2013-05-18 18:42:00,
2013-05-18 14:52:00,74.0,40.0,30.21,SSW,209,0.0,-999.0,29,-99.99,,,-99.99,,2013-05-18 18:52:00,
2013-05-18 15:02:00,76.0,41.0,30.20,NW,317,0.0,-999.0,28,-99.99,,,-99.99,,2013-05-18 19:02:00,
2013-05-18 15:12:00,76.0,41.0,30.20,NW,317,0.0,-999.0,28,-99.99,,,-99.99,,2013-05-18 19:12:00,
2013-05-18 15:22:00,76.0,41.0,30.20,SSW,209,0.0,-999.0,29,-99.99,,,-99.99,,2013-05-18 19:22:00,
2013-05-18 15:32:00,74.0,40.0,30.19,WNW,282,0.0,-999.0,29,-99.99,,,-99.99,,2013-05-18 19:32:00,
2013-05-18 15:42:00,74.0,40.0,30.19,WNW,282,0.0,-999.0,29,-99.99,,,-99.99,,2013-05-18 19:42:00,
2013-05-18 15:52:00,73.0,39.0,30.19,WNW,283,0.0,-999.0,29,-99.99,,,-99.99,,2013-05-18 19:52:00,
2013-05-18 16:02:00,74.0,41.0,30.19,WNW,286,0.0,-999.0,31,-99.99,,,-99.99,,2013-05-18 20:02:00,
2013-05-18 16:11:00,74.0,41.0,30.19,WNW,286,0.0,-999.0,31,-99.99,,,-99.99,,2013-05-18 20:11:00,
2013-05-18 16:22:00,70.0,45.0,30.19,SE,136,0.0,-999.0,41,-99.99,,,-99.99,,2013-05-18 20:22:00,
2013-05-18 16:32:00,68.0,46.0,30.20,ESE,115,0.0,-999.0,45,-99.99,,,-99.99,,2013-05-18 20:32:00,
2013-05-18 16:42:00,68.0,46.0,30.20,ESE,115,0.0,-999.0,45,-99.99,,,-99.99,,2013-05-18 20:42:00,
2013-05-18 16:52:00,67.0,45.0,30.20,SSE,162,0.0,-999.0,45,-99.99,,,-99.99,,2013-05-18 20:52:00,
2013-05-18 17:01:00,68.0,45.0,30.20,SE,144,0.0,-999.0,44,-99.99,,,-99.99,,2013-05-18 21:01:00,
2013-05-18 17:12:00,68.0,45.0,30.20,SE,144,0.0,-999.0,44,-99.99,,,-99.99,,2013-05-18 21:12:00,
2013-05-18 17:21:00,67.0,45.0,30.20,WSW,252,0.0,-999.0,45,-99.99,,,-99.99,,2013-05-18 21:21:00,
2013-05-18 17:33:00,66.0,46.0,30.20,East,98,0.0,-999.0,48,-99.99,,,-99.99,,2013-05-18 21:33:00,
2013-05-18 17:43:00,66.0,46.0,30.20,East,98,0.0,-999.0,48,-99.99,,,-99.99,,2013-05-18 21:43:00,
2013-05-18 17:53:00,65.0,46.0,30.19,NE,39,0.0,-999.0,50,-99.99,,,-99.99,,2013-05-18 21:53:00,
2013-05-18 18:03:00,64.0,45.0,30.19,NE,48,0.0,-999.0,51,-99.99,,,-99.99,,2013-05-18 22:03:00,
2013-05-18 18:12:00,64.0,46.0,30.19,SSE,156,0.0,-999.0,52,-99.99,,,-99.99,,2013-05-18 22:12:00,
2013-05-18 18:23:00,64.0,46.0,30.19,SSE,156,0.0,-999.0,52,-99.99,,,-99.99,,2013-05-18 22:23:00,
2013-05-18 18:33:00,65.0,47.0,30.19,ESE,103,0.0,-999.0,52,-99.99,,,-99.99,,2013-05-18 22:33:00,
2013-05-18 18:42:00,65.0,47.0,30.19,SSE,159,0.0,-999.0,53,-99.99,,,-99.99,,2013-05-18 22:42:00,
2013-05-18 18:52:00,65.0,47.0,30.19,SSE,159,0.0,-999.0,53,-99.99,,,-99.99,,2013-05-18 22:52:00,
2013-05-18 19:02:00,64.0,47.0,30.19,East,101,0.0,-999.0,55,-99.99,,,-99.99,,2013-05-18 23:02:00,
2013-05-18 19:12:00,64.0,47.0,30.19,East,101,0.0,-999.0,55,-99.99,,,-99.99,,2013-05-18 23:12:00,
2013-05-18 19:22:00,63.0,48.0,30.20,SSE,161,0.0,-999.0,57,-99.99,,,-99.99,,2013-05-18 23:22:00,
2013-05-18 19:32:00,63.0,48.0,30.20,East,93,0.0,-999.0,59,-99.99,,,-99.99,,2013-05-18 23:32:00,
2013-05-18 19:42:00,63.0,48.0,30.20,East,93,0.0,-999.0,59,-99.99,,,-99.99,,2013-05-18 23:42:00,
2013-05-18 19:52:00,62.0,48.0,30.20,East,91,0.0,-999.0,60,-99.99,,,-99.99,,2013-05-18 23:52:00,
2013-05-18 20:01:00,61.0,48.0,30.20,East,88,0.0,-999.0,62,-99.99,,,-99.99,,2013-05-19 00:01:00,
2013-05-18 20:12:00,61.0,48.0,30.20,East,88,0.0,-999.0,62,-99.99,,,-99.99,,2013-05-19 00:12:00,
2013-05-18 20:21:00,61.0,48.0,30.20,ESE,112,0.0,-999.0,62,-99.99,,,-99.99,,2013-05-19 00:21:00,
2013-05-18 20:32:00,60.0,48.0,30.21,ESE,112,0.0,-999.0,64,-99.99,,,-99.99,,2013-05-19 00:32:00,
2013-05-18 20:41:00,60.0,48.0,30.21,ESE,112,0.0,-999.0,64,-99.99,,,-99.99,,2013-05-19 00:41:00,
2013-05-18 20:52:00,60.0,49.0,30.21,ESE,112,0.0,-999.0,66,-99.99,,,-99.99,,2013-05-19 00:52:00,
2013-05-18 21:01:00,59.0,47.0,30.21,ESE,115,0.0,-999.0,65,-99.99,,,-99.99,,2013-05-19 01:01:00,
2013-05-18 21:11:00,59.0,47.0,30.21,ESE,115,0.0,-999.0,65,-99.99,,,-99.99,,2013-05-19 01:11:00,
2013-05-18 21:22:00,59.0,47.0,30.22,South,187,0.0,-999.0,65,-99.99,,,-99.99,,2013-05-19 01:22:00,
2013-05-18 21:32:00,60.0,48.0,30.22,South,187,0.0,-999.0,64,-99.99,,,-99.99,,2013-05-19 01:32:00,
2013-05-18 21:42:00,60.0,48.0,30.22,South,187,0.0,-999.0,64,-99.99,,,-99.99,,2013-05-19 01:42:00,
2013-05-18 21:52:00,59.0,47.0,30.23,South,187,0.0,-999.0,64,-99.99,,,-99.99,,2013-05-19 01:52:00,
2013-05-18 22:02:00,59.0,47.0,30.23,South,187,0.0,-999.0,65,-99.99,,,-99.99,,2013-05-19 02:02:00,
2013-05-18 22:11:00,59.0,47.0,30.23,South,187,0.0,-999.0,65,-99.99,,,-99.99,,2013-05-19 02:11:00,
2013-05-18 22:22:00,59.0,47.0,30.24,South,187,0.0,-999.0,65,-99.99,,,-99.99,,2013-05-19 02:22:00,
2013-05-18 22:32:00,58.0,47.0,30.24,South,187,0.0,-999.0,66,-99.99,,,-99.99,,2013-05-19 02:32:00,
2013-05-18 22:42:00,58.0,47.0,30.24,South,187,0.0,-999.0,66,-99.99,,,-99.99,,2013-05-19 02:42:00,
2013-05-18 22:52:00,57.0,46.0,30.24,South,187,0.0,-999.0,67,-99.99,,,-99.99,,2013-05-19 02:52:00,
2013-05-18 23:01:00,57.0,47.0,30.24,South,187,0.0,-999.0,69,-99.99,,,-99.99,,2013-05-19 03:01:00,
2013-05-18 23:11:00,57.0,47.0,30.24,South,187,0.0,-999.0,69,-99.99,,,-99.99,,2013-05-19 03:11:00,
2013-05-18 23:22:00,56.0,46.0,30.24,South,187,0.0,-999.0,70,-99.99,,,-99.99,,2013-05-19 03:22:00,
2013-05-18 23:33:00,55.0,46.0,30.24,South,187,0.0,-999.0,71,-99.99,,,-99.99,,2013-05-19 03:33:00,
2013-05-18 23:42:00,55.0,46.0,30.24,South,187,0.0,-999.0,71,-99.99,,,-99.99,,2013-05-19 03:42:00,
2013-05-18 23:53:00,54.0,46.0,30.24,South,187,0.0,-999.0,74,-99.99,,,-99.99,,2013-05-19 03:53:00,